Weather History for Palma de Mallorca, Spain

Change the Weather History Date:

Friday, March 8, 2013

  Actual Average Record
Temperature  
Mean Temperature 62 °F -  
Max Temperature 68 °F 63 °F 68 °F (2013)
Min Temperature 57 °F 42 °F 31 °F (2014)
Degree Days  
Heating Degree Days 2    
Growing Degree Days 12 (Base 50)    
Moisture  
Dew Point 52 °F    
Average Humidity 71    
Maximum Humidity 94    
Minimum Humidity 30    
Precipitation  
Precipitation 0.00 in 0.05 in - ()
Sea Level Pressure  
Sea Level Pressure 29.73 in    
Wind  
Wind Speed 12 mph ()    
Max Wind Speed 23 mph    
Max Gust Speed 33 mph    
Visibility 7.0 miles    
Events Rain    
Averages and records for this station are not official NWS values.
T = Trace of Precipitation, MM = Missing Value Source: Averaged Metar Reports

Daily Weather History Graph

Daily Weather History Graph

Search for Another Location

Airport:

Trip Planner

Search our weather history database for the weather conditions in past years. The results will help you decide how hot, cold, wet, or windy it might be!

Date:

Astronomy

Mar. 08, 2013 Rise Set
Actual Time 7:11 AM CET 6:48 PM CET
Civil Twilight 6:44 AM CET 7:15 PM CET
Nautical Twilight 6:13 AM CET 7:46 PM CET
Astronomical Twilight 5:42 AM CET 8:18 PM CET
Moon 4:44 AM CET (3/8) 3:27 PM CET (3/8)
Length of Visible Light 12h 31m
Length of Day
11h 37m
Waning Crescent, 14% of the Moon is Illuminated
Mar 8
Waning Crescent
Mar 11
New
Mar 19
First Quarter
Mar 27
Full
Apr 3
Last Quarter

Hourly Weather History & Observations

Time (CET) Temp. Dew Point Humidity Pressure Visibility Wind Dir Wind Speed Gust Speed Precip Events Conditions
12:00 AM 59.0 °F 57.2 °F 94% 29.65 in 6.2 mi WSW 8.1 mph - N/A   Scattered Clouds
12:30 AM 59.0 °F 57.2 °F 94% 29.65 in 6.2 mi WSW 10.4 mph - N/A   Partly Cloudy
1:00 AM 58 °F 54 °F 83% 29.65 in 9 mi SW 9.2 mph - - Rain Light Rain
1:00 AM 59.0 °F 57.2 °F 94% 29.65 in 6.2 mi SSW 6.9 mph - N/A   Partly Cloudy
1:30 AM 60.8 °F 55.4 °F 82% 29.62 in 6.2 mi SSW 9.2 mph - N/A   Partly Cloudy
2:00 AM 62.6 °F 53.6 °F 72% 29.62 in 6.2 mi WSW 20.7 mph 33.4 mph N/A   Partly Cloudy
2:30 AM 64.4 °F 50.0 °F 59% 29.62 in - WSW 13.8 mph - N/A   Clear
3:00 AM 64.4 °F 51.8 °F 64% 29.62 in 6.2 mi WSW 20.7 mph - N/A   Partly Cloudy
3:30 AM 62.6 °F 51.8 °F 68% 29.62 in 6.2 mi West 17.3 mph - N/A   Partly Cloudy
4:00 AM 62.6 °F 51.8 °F 68% 29.62 in - West 23.0 mph - N/A   Clear
4:30 AM 64.4 °F 51.8 °F 64% 29.65 in - West 19.6 mph - N/A   Clear
5:00 AM 60.8 °F 51.8 °F 72% 29.65 in - SW 12.7 mph - N/A   Clear
5:30 AM 59.0 °F 53.6 °F 82% 29.65 in - SW 9.2 mph - N/A   Clear
6:00 AM 59.0 °F 53.6 °F 82% 29.68 in - SW 9.2 mph - N/A   Clear
6:30 AM 59.0 °F 51.8 °F 77% 29.68 in 6.2 mi WSW 10.4 mph - N/A   Partly Cloudy
7:00 AM 59 °F 46 °F 53% 29.70 in 12 mi West 13.8 mph - -   Scattered Clouds
7:00 AM 60.8 °F 50.0 °F 68% 29.68 in 6.2 mi West 13.8 mph 25.3 mph N/A   Partly Cloudy
7:30 AM 60.8 °F 50.0 °F 68% 29.71 in 6.2 mi West 15.0 mph - N/A   Partly Cloudy
8:00 AM 60.8 °F 50.0 °F 68% 29.71 in 6.2 mi West 18.4 mph - N/A   Partly Cloudy
8:30 AM 62.6 °F 50.0 °F 63% 29.74 in 6.2 mi West 18.4 mph - N/A   Partly Cloudy
9:00 AM 62.6 °F 50.0 °F 63% 29.74 in 6.2 mi West 21.9 mph - N/A   Partly Cloudy
9:30 AM 64.4 °F 50.0 °F 59% 29.77 in 6.2 mi WSW 23.0 mph - N/A   Partly Cloudy
10:00 AM 64.4 °F 51.8 °F 64% 29.77 in 6.2 mi West 21.9 mph - N/A   Partly Cloudy
10:30 AM 64.4 °F 51.8 °F 64% 29.77 in 6.2 mi West 20.7 mph - N/A   Partly Cloudy
11:00 AM 66.2 °F 50.0 °F 56% 29.77 in 6.2 mi West 18.4 mph - N/A   Partly Cloudy
11:30 AM 66.2 °F 51.8 °F 60% 29.77 in 6.2 mi West 17.3 mph - N/A   Partly Cloudy
12:00 PM 66.2 °F 50.0 °F 56% 29.80 in 6.2 mi WSW 16.1 mph - N/A   Partly Cloudy
12:30 PM 68.0 °F 48.2 °F 49% 29.80 in 6.2 mi West 16.1 mph - N/A   Partly Cloudy
1:00 PM 68 °F 44 °F 30% 29.79 in 19 mi West 21.9 mph - -   Scattered Clouds
1:00 PM 68.0 °F 46.4 °F 46% 29.77 in 6.2 mi West 18.4 mph - N/A   Partly Cloudy
1:30 PM 68.0 °F 46.4 °F 46% 29.80 in 6.2 mi West 18.4 mph - N/A   Partly Cloudy
2:00 PM 68.0 °F 48.2 °F 49% 29.77 in 6.2 mi West 18.4 mph - N/A   Partly Cloudy
2:30 PM 66.2 °F 51.8 °F 60% 29.77 in 6.2 mi SW 11.5 mph - N/A   Partly Cloudy
3:00 PM 66.2 °F 51.8 °F 60% 29.77 in 6.2 mi SW 15.0 mph - N/A   Partly Cloudy
3:30 PM 64.4 °F 53.6 °F 68% 29.77 in 6.2 mi SSW 16.1 mph - N/A   Partly Cloudy
4:00 PM 64.4 °F 53.6 °F 68% 29.77 in 6.2 mi SW 13.8 mph - N/A   Partly Cloudy
4:30 PM 64.4 °F 53.6 °F 68% 29.77 in 6.2 mi SW 12.7 mph - N/A   Partly Cloudy
5:00 PM 62.6 °F 53.6 °F 72% 29.77 in - SW 10.4 mph - N/A   Clear
5:30 PM 62.6 °F 53.6 °F 72% 29.77 in - SW 8.1 mph - N/A   Clear
6:00 PM 62.6 °F 53.6 °F 72% 29.77 in - SSW 4.6 mph - N/A   Clear
6:30 PM 60.8 °F 53.6 °F 77% 29.77 in 6.2 mi SW 4.6 mph - N/A   Partly Cloudy
7:00 PM 60 °F 50 °F 61% 29.79 in 19 mi SW 15.0 mph - -   Scattered Clouds
7:00 PM 60.8 °F 53.6 °F 77% 29.77 in 6.2 mi SSW 9.2 mph - N/A   Partly Cloudy
7:30 PM 59.0 °F 53.6 °F 82% 29.77 in 6.2 mi SW 8.1 mph - N/A   Partly Cloudy
8:00 PM 59.0 °F 55.4 °F 88% 29.77 in 6.2 mi SW 9.2 mph - N/A   Partly Cloudy
8:30 PM 59.0 °F 55.4 °F 88% 29.77 in 6.2 mi Variable 2.3 mph - N/A   Partly Cloudy
9:00 PM 59.0 °F 55.4 °F 88% 29.80 in 6.2 mi SSW 6.9 mph - N/A   Partly Cloudy
9:30 PM 59.0 °F 55.4 °F 88% 29.77 in 6.2 mi SSW 3.5 mph - N/A   Partly Cloudy
10:00 PM 57.2 °F 55.4 °F 94% 29.77 in 6.2 mi Calm Calm - N/A   Partly Cloudy
10:30 PM 57.2 °F 55.4 °F 94% 29.77 in 6.2 mi SSE 3.5 mph - N/A   Partly Cloudy
11:00 PM 57.2 °F 55.4 °F 94% 29.77 in 6.2 mi South 5.8 mph - N/A   Partly Cloudy
11:30 PM 57.2 °F 55.4 °F 94% 29.77 in 6.2 mi South 1.2 mph - N/A   Partly Cloudy